Other Surface Observations
Issued by NWS

Current Version | Previous Version | Text Only | Print | Product List | Glossary On
Versions: 1 2 3 4 5 6 7 8 9 10 11 12 13 14 15 16 17 18 19 20 21 22 23 24 25 26 27 28 29 30 31 32 33 34 35 36 37 38 39 40 41 42 43 44 45 46 47 48 49 50
000
SXUS52 KTAE 150704
OSOTAE
OSOTAE
North Florida/South Alabama/Southwest Georgia Weather Roundup
National Weather Service Tallahassee Florida
300 AM EDT TUE OCT 15 2019

Note: "fair" indicates few or no clouds below 12,000 feet with no
significant weather and/or obstructions to visibility.

!FLZ017-115-028-034-025-150800
...North Florida...

CITY           SKY/WX    TMP DP  RH WIND       PRES   REMARKS
TALL INTL ARPT MOCLDY    72  69  90 CALM      30.05F
FSU LOVE BLDG  NOT AVBL
APALACHICOLA   MOCLDY    73  70  90 CALM      30.05R
PERRY          NOT AVBL
CROSS CITY       N/A     71  69  94 CALM      30.06F
JACKSONVILLE   CLOUDY    75  70  84 SW3       30.06S
$$

!FLZ112-006-005-002-011-150800
...Florida Panhandle...

CITY           SKY/WX    TMP DP  RH WIND       PRES   REMARKS
MARIANNA       CLOUDY    73  71  93 CALM      30.05S
BONIFAY        CLOUDY    72  71  97 CALM      30.06F FOG
PANAMA CITY NW MOCLDY    73  71  93 CALM      30.04F
TYNDALL AFB    FAIR      74  72  92 E5        30.03F
TYND DRONE APT PTSUNNY   74  72  93 E5        30.04F
DE FUNIAK SPR  CLOUDY    72  71  98 CALM      30.06S
EGLIN AFB      CLOUDY    74  72  95 E3        30.04F
DESTIN         MOCLDY    75  72  90 CALM      30.04F
HURLBURT       CLOUDY    73  71  95 CALM      30.03F
CRESTVIEW      CLOUDY    72  70  93 CALM      30.06S FOG
PENSACOLA      CLOUDY    74  74 100 E3        30.03F
$$

!ALZ063-066-150800
...South Alabama...

CITY           SKY/WX    TMP DP  RH WIND       PRES   REMARKS
DOTHAN         LGT RAIN  73  71  93 CALM      30.09F
OZARK CAIRNS   LGT RAIN  72  71  98 CALM      30.06S
FT RUCKER HELI LGT RAIN  70  70 100 CALM      30.05F FOG
RUCKER HELI 3  LGT RAIN  70  70 100 E3        30.05F
RUCKER HELI 2  NOT AVBL
FLORALA APT    LGT RAIN  72  69  90 NE5       30.07S
ANDALUSIA      LGT RAIN  74  70  87 CALM      30.06S
TROY           LGT RAIN  68  68 100 CALM      30.07F
EUFALA         NOT AVBL
MOBILE         CLOUDY    72  71  97 E6        30.04F
$$

!GAZ120>161-150800
...Southwest and South Central Georgia...

CITY           SKY/WX    TMP DP  RH WIND       PRES   REMARKS
THOMASVILLE    DRIZZLE   72  70  94 N3        30.08S
BAINBRIDGE     MOCLDY    73  72  97 E3        30.06F
MOODY AFB      FAIR      72  72 100 N5        30.05F
VALDOSTA       LGT RAIN  73  70  90 CALM      30.06S
MOULTRIE       LGT RAIN  72  66  83 CALM      30.08S
BLAKELY        DRIZZLE   66  64  94 CALM      30.07F
ALBANY         LGT RAIN  71  67  87 NE6       30.09F
TIFTON         LGT RAIN  70  67  89 CALM      30.07F
FITZGERALD     PTSUNNY   70  70  99 CALM      30.10F
CORDELE        LGT RAIN  68  67  96 NE3       30.10F
AMERICUS       LGT RAIN  72  68  88 CALM      30.11F
HOMERVILLE     MOCLDY    72  68  88 CALM      30.06F
$$

!GMZ750-755-770-775-150800
...Coastal and Buoy Obs...

STATION/POSITION TIME  TEMP    WIND        PRES    VSBY  WAVE
                       AIR SEA DIR/SP/G                  HT/PER
                 (UTC) (F)     (DEG/KT/KT) (MB)    (MI)  (FT/S)
KEATON BEACH     0600   74      60/  3/  4 1018.1F
CEDAR KEY        0600   78     100/  6/  6 1018.2F
C TOWER          0600   79     180/  1/  3 1018.0F
APALACHICOLA BUO 0650   81     120/  4/  4 1017.8F         1/ 5
PANAMA CITY BUOY 0650      82  120/  8/ 10 1017.0F         2/ 5
MOBILE BUOY      0650   81     120/  8/ 10 1016.8F         2/ 6
ORANGE BCH AL BU 0650   78 83   90/ 10/ 12 1017.1F         2/ 6
$$



USA.gov is the U.S. government's official web portal to all federal, state and local government web resources and services.